Lid_Strength_Index
4 4 4 4 4 4 4 5 5 5 6 4 2 2 2 1 1 1 2 1 4 7 6 5 5 7 7 7 10 7 8 7 9 12 13 12 13 11 12 12 13 14 14 14 14 14 17 7 7 11 8 6 6 5
4 4 4 4 4 4 4 4 5 5 5 5 3 2 2 1 1 1 3 1 2 6 6 3 3 3 4 4 6 6 8 8 8 11 10 11 13 12 12 16 9 15 12 14 13 14 8 6 7 5 5 6 5 5
4 4 4 3 3 4 4 4 4 4 5 5 5 2 2 2 1 2 2 2 4 6 6 4 5 3 2 3 2 9 6 5 6 4 8 10 13 11 14 13 12 10 8 12 11 10 9 8 6 6 5 6 5 4
5 4 3 3 3 3 3 4 4 4 5 5 5 3 2 2 2 2 3 2 4 6 9 5 2 3 2 2 3 4 5 4 4 5 8 9 11 8 12 11 11 9 9 10 10 9 8 8 8 7 6 6 5 4
5 4 4 3 3 3 3 4 3 4 5 5 5 4 3 2 2 2 1 1 2 6 8 6 3 2 2 2 2 3 4 5 6 7 8 8 7 8 7 9 11 9 10 12 12 8 9 9 7 7 7 7 6 5
6 5 5 3 3 3 3 3 3 3 4 5 5 5 4 3 2 2 4 1 1 4 8 10 3 4 2 2 3 3 3 4 5 5 6 5 5 7 9 9 8 7 6 7 8 7 6 6 6 6 7 6 6 6
6 5 5 4 3 3 3 3 3 3 4 5 5 5 5 3 2 3 4 2 3 3 7 8 6 3 3 2 2 3 3 3 4 5 6 6 6 6 8 12 8 7 7 7 6 6 7 6 7 6 6 5 5 5
6 5 5 4 3 3 3 3 3 3 4 5 5 5 4 4 4 3 1 2 2 4 5 9 8 6 3 6 5 2 5 4 4 6 6 7 7 7 10 8 8 7 8 7 7 6 6 6 6 6 6 6 6 6
6 5 5 5 4 3 3 3 3 3 4 5 5 4 4 4 4 3 2 2 1 4 7 7 10 12 3 5 5 4 3 8 4 7 8 7 9 12 9 8 7 7 8 7 6 6 6 6 6 6 6 5 6 6
6 5 5 5 4 4 3 3 3 3 4 5 5 5 6 5 5 4 4 5 5 4 5 8 5 9 5 6 7 6 4 6 9 8 6 9 9 7 6 6 6 5 5 6 7 7 6 7 6 6 5 5 5 5
6 6 5 5 5 4 3 3 3 3 4 5 7 7 6 5 5 6 7 7 6 8 6 6 5 8 4 9 9 6 8 6 10 9 9 9 10 7 5 5 4 4 4 5 5 5 5 5 6 5 5 5 5 5
7 6 5 5 5 4 4 3 3 3 4 6 6 6 7 8 7 9 9 7 8 8 6 6 6 5 5 4 7 6 9 7 12 6 9 10 7 5 4 4 4 4 4 4 4 4 4 4 4 4 4 4 4 4
6 6 5 5 5 4 4 3 4 4 4 4 7 8 8 7 12 11 13 10 9 6 5 5 6 5 5 5 7 7 12 11 7 10 10 8 6 4 4 4 4 3 3 3 4 4 4 4 4 4 4 4 4 4
6 5 5 5 5 4 5 5 4 4 5 7 9 11 9 9 9 8 8 8 6 6 6 4 5 6 6 8 6 12 7 7 12 14 12 6 5 5 4 3 4 4 4 4 3 4 4 4 5 4 5 4 4 4
6 5 5 5 5 5 5 4 4 4 5 8 7 11 8 6 4 5 5 5 6 4 5 6 6 6 7 8 7 9 11 14 12 12 7 5 4 4 4 4 3 3 3 4 4 4 4 4 4 4 4 5 5 5
6 5 4 5 5 4 4 3 3 4 5 7 6 8 6 6 6 5 5 6 4 5 5 5 7 8 9 8 11 12 13 14 12 9 5 4 4 4 4 3 3 3 3 3 3 4 3 4 4 4 4 5 5 6
6 6 5 5 4 4 4 5 5 7 8 7 7 5 5 6 6 6 5 5 3 6 8 7 10 11 7 10 12 9 12 10 7 4 3 4 4 3 3 3 3 3 3 2 3 3 4 3 3 3 5 5 4 4
6 4 4 4 4 5 5 5 6 7 9 6 7 5 5 4 5 5 4 3 4 6 6 8 6 9 11 13 11 9 7 5 4 3 3 3 3 3 2 3 3 2 2 2 2 2 2 3 4 4 3 3 4 5
5 4 4 4 4 6 8 6 5 9 7 5 4 4 4 4 4 3 4 3 3 3 4 6 8 8 8 6 7 6 5 4 5 3 3 3 3 3 2 2 2 2 2 2 2 3 2 2 3 2 3 3 4 4
5 4 4 5 5 8 8 7 4 7 8 5 4 5 5 4 4 4 4 4 4 5 6 7 7 6 5 5 5 5 5 3 3 4 4 3 2 3 3 2 1 2 2 2 2 4 2 2 2 3 2 3 4 5
5 4 5 4 6 7 8 6 7 6 6 6 5 5 5 4 5 5 5 4 5 6 7 5 5 4 3 4 4 3 4 3 4 4 4 4 2 2 2 2 2 1 2 2 3 3 3 3 3 2 2 2 3 4
6 5 5 5 8 8 8 5 6 6 7 6 6 5 6 7 6 6 4 6 6 5 4 4 4 3 4 5 4 3 3 3 2 3 8 6 4 3 2 2 2 2 2 2 2 3 3 2 2 2 2 2 2 3
5 5 7 7 10 10 10 5 8 7 9 7 6 7 7 6 5 5 7 5 5 3 3 4 3 3 3 4 4 3 2 3 3 3 3 3 2 2 2 1 1 2 2 2 1 2 2 6 3 2 1 1 2 2
6 8 11 11 11 12 8 9 8 8 7 7 8 9 7 6 4 6 8 6 5 3 3 3 3 4 3 3 4 4 3 2 3 3 2 3 3 2 2 2 1 0 1 1 1 1 1 2 4 2 2 2 3 3
10 11 11 13 10 11 11 10 9 9 9 8 9 8 7 5 8 8 9 6 4 4 4 3 4 3 4 4 3 3 2 2 3 3 3 2 2 3 3 2 1 1 0 1 1 2 2 2 2 2 2 3 4 4
12 10 11 11 11 11 9 11 10 9 8 9 9 7 5 7 9 9 7 5 4 4 4 4 4 4 4 4 4 4 3 2 2 3 2 2 3 3 3 3 3 2 -0 -0 0 2 2 2 2 3 3 3 6 4
12 11 8 5 6 7 8 7 6 7 9 9 8 8 8 11 10 7 5 4 4 3 3 3 4 4 3 3 2 2 2 1 2 2 2 1 1 1 1 2 3 1 -0 0 -0 1 2 2 2 3 3 3 4 5
9 8 10 8 8 7 9 9 9 9 8 5 6 9 10 9 8 4 4 3 3 3 3 3 3 3 3 2 2 2 2 2 2 1 1 1 1 0 0 0 0 8 0 0 0 0 0 1 2 2 3 3 3 4
10 8 8 10 9 8 9 9 9 7 5 6 8 8 8 6 4 3 3 3 3 3 4 4 4 2 2 1 1 2 2 2 3 4 4 4 3 2 0 0 1 0 0 1 9 5 2 2 2 2 3 3 3 3
9 7 10 10 11 11 8 7 7 5 5 5 5 5 5 4 3 2 3 3 4 4 4 3 3 3 4 4 4 3 2 2 1 2 3 3 3 1 1 1 1 0 0 0 1 3 8 4 5 2 3 3 3 4
7 7 9 9 9 7 6 6 5 5 5 5 4 6 6 5 4 5 7 6 4 4 5 5 4 3 3 4 4 3 3 2 1 1 1 0 1 1 1 0 0 0 0 0 1 2 2 2 3 4 4 5 5 5
7 8 9 10 8 5 4 5 6 6 5 6 6 5 5 6 7 8 8 8 7 7 8 8 7 7 6 5 5 4 7 2 3 3 2 2 1 1 1 0 0 0 0 1 2 2 3 3 4 5 5 6 6 6
9 8 8 9 9 8 6 6 7 7 6 6 6 6 6 7 11 9 7 7 8 9 9 9 8 7 7 7 6 7 7 6 8 9 8 8 8 5 2 1 2 2 2 2 3 3 4 4 5 5 6 6 6 7